User: anonymous   Login
Location: Omaha
(41.2590°N, 95.9380°W)
Time: 06:32:55
(UTC-05:00)
Language:

Tiangong 1 - Orbit

View from above orbital plane
View from above orbital plane
View from above satellite
View from above satellite

Ground track
Ground track

The orbit data is extracted from the following two-line orbital elements,

1 37820U 11053A   17290.14795766  .00043305  88113-5  15849-3 0  9995
2 37820  42.7559 169.0879 0020239 233.6818 263.3379 15.88221309347298
Epoch (UTC): 17 October 2017 03:33:03
Eccentricity: 0.0020239
inclination: 42.7559°
perigee height: 294 km
apogee height: 321 km
right ascension of ascending node: 169.0879°
argument of perigee: 233.6818°
revolutions per day: 15.88221309
mean anomaly at epoch: 263.3379°
orbit number at epoch: 34729

The dashed part of the orbit path shows where the satellite is in the earth's shadow,  

DLR